[Iaude] MPEC U254: 2023 CS6 [a=1.48,e=0.42,i=31.1,H=29.2]
    mpec at marsden.cfa.harvard.edu 
    mpec at marsden.cfa.harvard.edu
       
    Wed Oct 25 17:22:36 EDT 2023
    
    
  
M.P.E.C. 2023-U254                             Issued 2023 October 25, 21:21 UT
     The Minor Planet Electronic Circulars contain information on unusual
         minor planets, routine data on comets and natural satellites,
         and occasional editorial announcements.  They are published
    on behalf of Division F of the International Astronomical Union by the
          Minor Planet Center, Smithsonian Astrophysical Observatory,
                          Cambridge, MA 02138, U.S.A.
			  
             Prepared using the Tamkin Foundation Computer Network
                              MPC at CFA.HARVARD.EDU
            URL https://www.minorplanetcenter.net/    ISSN 1523-6714
                                    2023 CS6                                    
Observations:
     K23C06S* C2023 02 14.53940909 14 39.744+08 47 24.00         18.6 GVEU254P07
     K23C06S  C2023 02 14.57922909 09 40.543+05 34 29.71         18.6 GVEU254P07
     K23C06S  C2023 02 14.62340409 04 38.582+02 19 24.89         18.9 GVEU254P07
     K23C06S  C2023 02 14.62673109 04 17.033+02 05 29.98         18.9 GVEU254P07
     K23C06S  C2023 02 14.65858609 00 59.030-00 02 25.04         18.9 GVEU254P07
     K23C06S  C2023 02 14.69975608 57 04.106-02 34 11.71         19.0 GVEU254P07
Observer details:
P07 Space Surveillance Telescope, HEH Station.  Observers M. Blythe, R.
    Brungard, P. Festler, T. McVey, J. Paige, G. Spitz, L. Banks.  Measurers
    M. Cornell, M. Kotson, A. Lue, R. Rios, J. Ruprecht, J. Vaillancourt, J.
    Varey, H. Viggh, D. Woods, R. Monardez.  3.5-m f/1. Reflector + CCD.
Orbital elements:
2023 CS6                                                 Earth MOID = 0.0034 AU
Epoch 2023 Sept. 13.0 TT = JDT 2460200.5                Veres                   
M 138.20009              (2000.0)            P               Q                  
n   0.54643267     Peri.  123.70448     -0.04785214     -0.95417949             
a   1.4817614      Node   325.11942     +0.65636925     +0.19287282             
e   0.4178785      Incl.   31.09943     +0.75292070     -0.22878282             
P   1.80           H   29.23          G   0.15           U   9                  
Residuals in seconds of arc
230214 P07  0.0   0.0     230214 P07  0.0   0.1-    230214 P07  0.1+  0.2+
230214 P07  0.1+  0.1+    230214 P07  0.2-  0.1-    230214 P07  0.0   0.1-
Ephemeris:
2023 CS6                 a,e,i = 1.48, 0.42, 31                  q = 0.8626
Date    TT    R. A. (2000) Decl.     Delta      r    Elong.  Phase     V
2023 09 25    14 38 02.3 -40 37 36   2.4827  2.0425    53.0    23.1    33.9
...
2023 10 10    15 17 10.6 -41 18 03   2.6231  2.0666    46.5    20.5    33.9
...
2023 10 18    15 38 17.2 -41 32 28   2.6915  2.0768    43.0    19.1    33.9
...
2023 10 24    15 54 11.5 -41 39 33   2.7394  2.0833    40.4    18.0    33.9
2023 10 25    15 56 50.8 -41 40 24   2.7471  2.0843    39.9    17.8    33.9
2023 10 26    15 59 30.2 -41 41 09   2.7546  2.0852    39.5    17.6    33.9
...
2023 11 01    16 15 27.2 -41 43 33   2.7983  2.0904    36.8    16.5    34.0
...
2023 11 09    16 36 44.2 -41 40 54   2.8511  2.0956    33.4    15.1    33.9
...
2023 11 24    17 16 30.3 -41 16 55   2.9321  2.1007    27.0    12.3    33.9
M. P. C. Staff               (C) Copyright 2023 MPC           M.P.E.C. 2023-U254
    
    
More information about the Iaude
mailing list